DW5056 Weather Reports


time (UTC)temp
C
wind
direction
speed
KPH
gust
KPH
rain 1hr
cm
rain 24hr
cm
rain mn
cm
humidity
%
barometer
mb
20190418121828 22 111 14.5 25.7 0.00 0.00 0.00 31 1023.0
20190418121321 22 159 12.9 25.7 0.00 0.00 0.00 32 1023.0
20190418120827 22 103 8.0 19.3 0.00 0.00 0.00 34 1022.9
20190418120319 22 89 9.7 19.3 0.00 0.00 0.00 36 1023.0
20190418115825 22 89 12.9 20.9 0.00 0.00 0.00 34 1023.0
20190418115332 22 150 11.3 19.3 0.00 0.00 0.00 34 1023.0
20190418114824 22 126 9.7 29.0 0.00 0.00 0.00 32 1023.1
20190418114321 22 129 12.9 29.0 0.00 0.00 0.00 32 1023.2
20190418113827 22 30 6.4 17.7 0.00 0.00 0.00 34 1023.2
20190418113320 22 78 4.8 20.9 0.00 0.00 0.00 32 1023.2
20190418112833 22 341 6.4 20.9 0.00 0.00 0.00 33 1023.2
20190418112317 22 125 4.8 19.3 0.00 0.00 0.00 35 1023.2
20190418111830 22 133 9.7 19.3 0.00 0.00 0.00 34 1023.2
20190418111323 22 58 6.4 12.9 0.00 0.00 0.00 35 1023.2
20190418110830 22 129 3.2 17.7 0.00 0.00 0.00 37 1023.3
20190418110327 21 117 9.7 17.7 0.00 0.00 0.00 34 1023.3
20190418105832 22 140 9.7 17.7 0.00 0.00 0.00 34 1023.3
20190418105317 22 82 4.8 14.5 0.00 0.00 0.00 34 1023.3
20190418104831 22 56 3.2 16.1 0.00 0.00 0.00 37 1023.4
20190418104323 21 81 3.2 16.1 0.00 0.00 0.00 39 1023.5
20190418103829 21 131 9.7 16.1 0.00 0.00 0.00 38 1023.5
20190418103323 21 62 6.4 16.1 0.00 0.00 0.00 39 1023.6
20190418102815 21 122 3.2 9.7 0.00 0.00 0.00 40 1023.6
20190418102319 21 103 3.2 14.5 0.00 0.00 0.00 41 1023.7
20190418101814 21 69 6.4 17.7 0.00 0.00 0.00 38 1023.7
20190418101328 21 134 6.4 17.7 0.00 0.00 0.00 41 1023.7
20190418100813 21 114 4.8 9.7 0.00 0.00 0.00 40 1023.6
20190418100326 21 96 3.2 8.0 0.00 0.00 0.00 43 1023.7
20190418095832 21 131 3.2 9.7 0.00 0.00 0.00 41 1023.9
20190418095317 20 125 3.2 9.7 0.00 0.00 0.00 44 1023.9
20190418094831 20 157 4.8 11.3 0.00 0.00 0.00 42 1023.9
20190418094324 20 98 4.8 12.9 0.00 0.00 0.00 43 1023.9
20190418093813 19 131 4.8 11.3 0.00 0.00 0.00 44 1023.9
20190418093326 19 84 8.0 11.3 0.00 0.00 0.00 44 1023.9
20190418092819 19 117 4.8 9.7 0.00 0.00 0.00 44 1023.8
20190418092324 18 63 3.2 11.3 0.00 0.00 0.00 46 1023.9
20190418091817 18 103 4.8 11.3 0.00 0.00 0.00 46 1023.9
20190418091330 18 108 4.8 8.0 0.00 0.00 0.00 46 1024.0
20190418090815 18 139 3.2 8.0 0.00 0.00 0.00 49 1024.0
20190418090328 17 77 4.8 9.7 0.00 0.00 0.00 50 1024.0
20190418085813 17 108 6.4 9.7 0.00 0.00 0.00 49 1024.0
20190418085322 17 129 6.4 11.3 0.00 0.00 0.00 52 1024.0
20190418084815 17 42 4.8 12.9 0.00 0.00 0.00 53 1024.0
20190418084328 17 112 4.8 11.3 0.00 0.00 0.00 52 1024.0
20190418083814 16 165 4.8 11.3 0.00 0.00 0.00 53 1023.9
20190418083328 16 111 6.4 11.3 0.00 0.00 0.00 53 1023.9
20190418082820 16 127 8.0 12.9 0.00 0.00 0.00 54 1023.9
20190418082325 16 134 6.4 9.7 0.00 0.00 0.00 55 1023.9
20190418081818 16 96 4.8 11.3 0.00 0.00 0.00 56 1023.9
20190418081315 16 81 4.8 11.3 0.00 0.00 0.00 57 1023.9
20190418080822 15 127 4.8 9.7 0.00 0.00 0.00 57 1023.8
20190418080314 15 129 4.8 12.9 0.00 0.00 0.00 58 1023.9
20190418075820 15 108 3.2 12.9 0.00 0.00 0.00 59 1023.8
20190418075325 15 85 4.8 11.3 0.00 0.00 0.00 59 1023.8
20190418074818 15 115 6.4 11.3 0.00 0.00 0.00 59 1023.8
20190418074331 15 115 6.4 9.7 0.00 0.00 0.00 59 1023.7
20190418073816 15 134 4.8 9.7 0.00 0.00 0.00 60 1023.7
20190418073330 15 76 4.8 8.0 0.00 0.00 0.00 60 1023.7
20190418072826 15 97 3.2 8.0 0.00 0.00 0.00 62 1023.7
20190418072332 14 79 3.2 12.9 0.00 0.00 0.00 64 1023.7
20190418071824 14 122 6.4 12.9 0.00 0.00 0.00 63 1023.6
20190418071317 14 83 3.2 8.0 0.00 0.00 0.00 64 1023.6
20190418070822 13 89 3.2 12.9 0.00 0.00 0.00 65 1023.5
20190418070315 13 89 4.8 12.9 0.00 0.00 0.00 65 1023.5
20190418065820 13 111 1.6 9.7 0.00 0.00 0.00 67 1023.5
20190418065328 13 122 1.6 9.7 0.00 0.00 0.00 69 1023.5
20190418064820 12 124 4.8 9.7 0.00 0.00 0.00 69 1023.4
20190418064317 12 98 3.2 8.0 0.00 0.00 0.00 69 1023.4
20190418063822 12 97 3.2 8.0 0.00 0.00 0.00 70 1023.3
20190418063315 12 82 1.6 8.0 0.00 0.00 0.00 71 1023.3
20190418062828 12 64 4.8 9.7 0.00 0.00 0.00 71 1023.3
20190418062313 12 121 1.6 6.4 0.00 0.00 0.00 72 1023.3
20190418061826 12 81 3.2 6.4 0.00 0.00 0.00 72 1023.2
20190418061319 12 111 4.8 8.0 0.00 0.00 0.00 72 1023.2
20190418060825 12 75 3.2 8.0 0.00 0.00 0.00 72 1023.1
20190418060322 11 108 1.6 6.4 0.00 0.00 0.00 74 1023.1
20190418055828 11 105 3.2 6.4 0.00 0.00 0.00 75 1023.1
20190418055312 11 81 0.0 3.2 0.00 0.00 0.00 75 1023.0
20190418054826 11 81 1.6 4.8 0.00 0.00 0.00 75 1023.0
20190418054318 11 82 1.6 4.8 0.00 0.00 0.00 76 1022.9
20190418053327 -17 0.0 0.0 0.00 0.00 0.00 1022.8
20190418052820 -17 0.0 0.0 0.00 0.00 0.00 1022.8
20190418052325 -17 0.0 0.0 0.00 0.00 0.00 1022.7
20190418050822 -17 0.0 0.0 0.00 0.00 0.00 1022.6
20190418050315 -17 0.0 0.0 0.00 0.00 0.00 1022.7
20190418045821 -17 0.0 0.0 0.00 0.00 0.00 1022.6
20190418045347 -17 0.0 0.0 0.00 0.00 0.00 1022.6
20190418044328 -17 0.0 0.0 0.00 0.00 0.00 1022.6
20190418043813 -17 0.0 0.0 0.00 0.00 0.00 1022.6
20190418043326 -17 0.0 0.0 0.00 0.00 0.00 1022.5
20190418042900 -17 0.0 0.0 0.00 0.00 0.00 1022.5
20190418041821 -17 0.0 0.0 0.00 0.00 0.00 1022.4
20190418041314 -17 0.0 0.0 0.00 0.00 0.00 1022.3
20190418040823 -17 0.0 0.0 0.00 0.00 0.00 1022.3
20190418035317 -17 0.0 0.0 0.00 0.00 0.00 1022.4
20190418034830 -17 0.0 0.0 0.00 0.00 0.00 1022.4
20190418034323 -17 0.0 0.0 0.00 0.00 0.00 1022.4
20190418033352 10 60 1.6 3.2 0.00 0.00 0.00 83 1022.4
20190418032830 10 60 1.6 3.2 0.00 0.00 0.00 83 1022.5
20190418032316 10 106 0.0 1.6 0.00 0.00 0.00 84 1022.5
20190418031831 10 106 1.6 1.6 0.00 0.00 0.00 84 1022.4
20190418031324 10 106 0.0 1.6 0.00 0.00 0.00 85 1022.4
20190418030830 10 105 0.0 1.6 0.00 0.00 0.00 86 1022.5
20190418030323 10 105 0.0 1.6 0.00 0.00 0.00 87 1022.5
20190418025829 10 105 0.0 1.6 0.00 0.00 0.00 87 1022.6
20190418025314 10 105 0.0 1.6 0.00 0.00 0.00 88 1022.6
20190418024828 10 105 0.0 1.6 0.00 0.00 0.00 88 1022.6
20190418024318 10 106 0.0 1.6 0.00 0.00 0.00 89 1022.5
20190418023823 10 105 0.0 1.6 0.00 0.00 0.00 89 1022.5
20190418023320 10 105 0.0 1.6 0.00 0.00 0.00 89 1022.5
20190418022813 10 106 0.0 1.6 0.00 0.00 0.00 89 1022.6
20190418022318 10 106 0.0 1.6 0.00 0.00 0.00 89 1022.7
20190418021832 10 105 0.0 1.6 0.00 0.00 0.00 88 1022.7
20190418021324 10 105 0.0 1.6 0.00 0.00 0.00 88 1022.8
20190418020830 10 105 0.0 1.6 0.00 0.00 0.00 88 1022.7
20190418020323 10 106 1.6 3.2 0.00 0.00 0.00 87 1022.6
20190418015829 10 105 1.6 3.2 0.00 0.00 0.00 87 1022.5
20190418015319 11 105 1.6 3.2 0.00 0.00 0.00 87 1022.5
20190418014831 11 105 0.0 1.6 0.00 0.00 0.00 86 1022.6
20190418014325 11 106 0.0 1.6 0.00 0.00 0.00 86 1022.5
20190418013830 11 105 0.0 1.6 0.00 0.00 0.00 86 1022.6
20190418013323 11 105 0.0 1.6 0.00 0.00 0.00 86 1022.6
20190418012815 11 105 0.0 1.6 0.00 0.00 0.00 86 1022.6
20190418012320 11 106 0.0 1.6 0.00 0.00 0.00 86 1022.5
20190418011813 11 105 0.0 1.6 0.00 0.00 0.00 86 1022.5
20190418011325 11 106 0.0 1.6 0.00 0.00 0.00 86 1022.6
20190418010816 11 105 0.0 1.6 0.00 0.00 0.00 85 1022.5
20190418010329 11 105 0.0 1.6 0.00 0.00 0.00 85 1022.5
20190418005815 11 105 0.0 1.6 0.00 0.00 0.00 85 1022.5
20190418005320 11 105 0.0 1.6 0.00 0.00 0.00 85 1022.5
20190418004813 12 115 0.0 1.6 0.00 0.00 0.00 85 1022.5
20190418004326 12 82 1.6 1.6 0.00 0.00 0.00 85 1022.4
20190418003832 12 80 0.0 1.6 0.00 0.00 0.00 85 1022.4
20190418003324 12 81 0.0 4.8 0.00 0.00 0.00 85 1022.4
20190418002821 12 81 1.6 4.8 0.00 0.00 0.00 85 1022.4
20190418002327 12 69 1.6 3.2 0.00 0.00 0.00 85 1022.5
20190418001820 12 77 1.6 4.8 0.00 0.00 0.00 85 1022.5
20190418001313 12 88 1.6 1.6 0.00 0.00 0.00 85 1022.5
20190418000817 12 86 1.6 4.8 0.00 0.00 0.00 84 1022.5
20190418000331 12 77 1.6 4.8 0.00 0.00 0.00 84 1022.6
20190417235816 12 78 1.6 4.8 0.00 0.00 0.00 84 1022.6
20190417235322 12 81 1.6 4.8 0.00 0.00 0.00 84 1022.6
20190417234813 12 64 1.6 4.8 0.00 0.00 0.00 84 1022.6
20190417234330 12 81 1.6 4.8 0.00 0.00 0.00 84 1022.5
20190417233815 12 78 3.2 4.8 0.00 0.00 0.00 84 1022.5
20190417233328 12 69 3.2 4.8 0.00 0.00 0.00 85 1022.6
20190417232820 12 79 1.6 4.8 0.00 0.00 0.00 85 1022.6
20190417232325 12 101 1.6 4.8 0.00 0.00 0.00 85 1022.5
20190417231817 12 156 1.6 4.8 0.00 0.00 0.00 85 1022.5
20190417231330 12 85 0.0 4.8 0.00 0.00 0.00 85 1022.5
20190417230815 12 84 0.0 1.6 0.00 0.00 0.00 85 1022.5
20190417230327 12 109 0.0 3.2 0.00 0.00 0.00 85 1022.5
20190417225816 12 108 1.6 3.2 0.00 0.00 0.00 86 1022.5
20190417225322 12 108 0.0 3.2 0.00 0.00 0.00 86 1022.5
20190417224814 12 41 0.0 1.6 0.00 0.00 0.00 86 1022.5
20190417224327 12 41 0.0 1.6 0.00 0.00 0.00 86 1022.5
20190417223814 12 41 0.0 6.4 0.00 0.00 0.00 86 1022.5
20190417223327 12 41 0.0 6.4 0.00 0.00 0.00 86 1022.6
20190417222820 12 40 1.6 6.4 0.00 0.00 0.00 86 1022.6
20190417222325 12 45 0.0 1.6 0.00 0.00 0.00 86 1022.6
20190417221822 12 46 0.0 1.6 0.00 0.00 0.00 86 1022.6
20190417221314 12 46 0.0 1.6 0.00 0.00 0.00 86 1022.6
20190417220820 12 46 0.0 1.6 0.00 0.00 0.00 86 1022.6
20190417220312 12 46 0.0 1.6 0.00 0.00 0.00 86 1022.6
20190417215819 12 45 0.0 3.2 0.00 0.00 0.00 86 1022.5
20190417215324 12 46 0.0 3.2 0.00 0.00 0.00 85 1022.6
20190417214816 12 72 0.0 0.0 0.00 0.00 0.00 85 1022.6
20190417214330 12 72 0.0 0.0 0.00 0.00 0.00 85 1022.5
20190417213815 12 72 0.0 0.0 0.00 0.00 0.00 85 1022.5
20190417213332 12 72 0.0 0.0 0.00 0.00 0.00 85 1022.5
20190417212825 12 72 0.0 1.6 0.00 0.00 0.00 85 1022.5
20190417212330 12 72 0.0 1.6 0.00 0.00 0.00 85 1022.5
20190417211823 12 81 0.0 1.6 0.00 0.00 0.00 84 1022.5
20190417211315 12 81 0.0 1.6 0.00 0.00 0.00 84 1022.5
20190417210821 12 81 0.0 1.6 0.00 0.00 0.00 84 1022.5
20190417210314 12 81 0.0 1.6 0.00 0.00 0.00 84 1022.5
20190417205820 12 81 0.0 1.6 0.00 0.00 0.00 83 1022.6
20190417205326 12 81 0.0 0.0 0.00 0.00 0.00 83 1022.5
20190417204821 12 81 0.0 0.0 0.00 0.00 0.00 82 1022.6
20190417204313 12 80 0.0 1.6 0.00 0.00 0.00 82 1022.5
20190417203819 12 81 0.0 1.6 0.00 0.00 0.00 81 1022.5
20190417203333 12 81 0.0 1.6 0.00 0.00 0.00 81 1022.5
20190417202825 13 81 0.0 1.6 0.00 0.00 0.00 80 1022.4
20190417202330 13 81 0.0 1.6 0.00 0.00 0.00 80 1022.3
20190417201823 13 81 0.0 1.6 0.00 0.00 0.00 79 1022.3
20190417201315 13 81 0.0 1.6 0.00 0.00 0.00 79 1022.2
20190417200826 13 81 0.0 1.6 0.00 0.00 0.00 79 1022.2
20190417200318 13 81 1.6 1.6 0.00 0.00 0.00 78 1022.1
20190417195824 13 96 1.6 1.6 0.00 0.00 0.00 78 1022.1
20190417195330 13 120 1.6 1.6 0.00 0.00 0.00 78 1022.1
20190417194822 13 120 0.0 3.2 0.00 0.00 0.00 77 1022.1
20190417194315 13 79 1.6 4.8 0.00 0.00 0.00 76 1022.0
20190417193821 13 61 1.6 4.8 0.00 0.00 0.00 76 1022.0
20190417193313 13 75 1.6 3.2 0.00 0.00 0.00 75 1022.0
20190417192826 13 79 1.6 3.2 0.00 0.00 0.00 75 1022.0
20190417192316 14 79 1.6 3.2 0.00 0.00 0.00 74 1021.9
20190417191830 14 77 1.6 3.2 0.00 0.00 0.00 74 1021.9
20190417191322 14 128 1.6 3.2 0.00 0.00 0.00 73 1021.9
20190417190827 14 69 0.0 3.2 0.00 0.00 0.00 73 1021.8
20190417190320 15 69 0.0 4.8 0.00 0.00 0.00 72 1021.7
20190417185826 15 122 1.6 4.8 0.00 0.00 0.00 72 1021.7
20190417185332 15 129 0.0 3.2 0.00 0.00 0.00 71 1021.5
20190417184822 15 150 1.6 3.2 0.00 0.00 0.00 70 1021.5
20190417184319 15 115 1.6 4.8 0.00 0.00 0.00 70 1021.4
20190417183825 15 86 3.2 4.8 0.00 0.00 0.00 69 1021.4
20190417183318 15 79 1.6 4.8 0.00 0.00 0.00 68 1021.4
20190417182831 15 115 0.0 6.4 0.00 0.00 0.00 68 1021.4
20190417182316 15 135 1.6 6.4 0.00 0.00 0.00 69 1021.4
20190417181826 15 120 1.6 3.2 0.00 0.00 0.00 69 1021.3
20190417181319 15 108 1.6 6.4 0.00 0.00 0.00 68 1021.3
20190417180825 15 111 3.2 6.4 0.00 0.00 0.00 68 1021.4
20190417180318 15 129 1.6 4.8 0.00 0.00 0.00 68 1021.3
20190417175825 15 114 3.2 4.8 0.00 0.00 0.00 68 1021.2
20190417175331 15 125 1.6 3.2 0.00 0.00 0.00 68 1021.3
20190417174823 15 115 3.2 3.2 0.00 0.00 0.00 68 1021.3
20190417174316 15 115 3.2 4.8 0.00 0.00 0.00 67 1021.3
20190417173821 15 114 3.2 4.8 0.00 0.00 0.00 67 1021.3
20190417173329 15 117 1.6 6.4 0.00 0.00 0.00 68 1021.3
20190417172822 15 117 3.2 6.4 0.00 0.00 0.00 67 1021.3
20190417172327 15 124 3.2 4.8 0.00 0.00 0.00 67 1021.3
20190417171820 15 112 1.6 4.8 0.00 0.00 0.00 67 1021.2
20190417171316 15 131 3.2 6.4 0.00 0.00 0.00 67 1021.3
20190417170822 15 131 3.2 6.4 0.00 0.00 0.00 67 1021.3
20190417170315 15 111 3.2 6.4 0.00 0.00 0.00 67 1021.3
20190417165819 15 137 1.6 4.8 0.00 0.00 0.00 68 1021.3
20190417165326 15 190 0.0 3.2 0.00 0.00 0.00 69 1021.4
20190417164818 15 186 0.0 1.6 0.00 0.00 0.00 68 1021.3
20190417164332 15 186 0.0 1.6 0.00 0.00 0.00 69 1021.3
20190417163815 15 190 0.0 3.2 0.00 0.00 0.00 69 1021.3
20190417163328 15 128 1.6 3.2 0.00 0.00 0.00 68 1021.3
20190417162825 15 198 0.0 3.2 0.00 0.00 0.00 68 1021.3
20190417162331 15 198 1.6 4.8 0.00 0.00 0.00 68 1021.3
20190417161824 15 137 1.6 4.8 0.00 0.00 0.00 68 1021.3
20190417161316 15 201 3.2 6.4 0.00 0.00 0.00 68 1021.3
20190417160821 15 212 1.6 6.4 0.00 0.00 0.00 67 1021.3
20190417160314 15 171 1.6 6.4 0.00 0.00 0.00 67 1021.3
20190417155819 15 214 3.2 8.0 0.00 0.00 0.00 66 1021.3
20190417155324 15 168 4.8 8.0 0.00 0.00 0.00 66 1021.3
20190417154821 15 156 3.2 6.4 0.00 0.00 0.00 65 1021.3
20190417154313 15 226 1.6 8.0 0.00 0.00 0.00 66 1021.3
20190417153819 16 198 4.8 9.7 0.00 0.00 0.00 66 1021.3
20190417153333 15 154 3.2 11.3 0.00 0.00 0.00 66 1021.4
20190417152825 16 177 6.4 11.3 0.00 0.00 0.00 66 1021.3
20190417152330 16 162 3.2 9.7 0.00 0.00 0.00 66 1021.4
20190417151823 16 210 3.2 8.0 0.00 0.00 0.00 66 1021.3
20190417151315 16 221 4.8 8.0 0.00 0.00 0.00 66 1021.3
20190417150822 16 162 1.6 8.0 0.00 0.00 0.00 66 1021.3
20190417150318 16 172 4.8 8.0 0.00 0.00 0.00 65 1021.4
20190417145823 16 187 4.8 8.0 0.00 0.00 0.00 66 1021.4
20190417145330 16 160 3.2 8.0 0.00 0.00 0.00 66 1021.3
20190417144822 16 212 1.6 9.7 0.00 0.00 0.00 66 1021.3
20190417144314 16 103 3.2 11.3 0.00 0.00 0.00 65 1021.3
20190417143819 16 210 3.2 6.4 0.00 0.00 0.00 67 1021.3
20190417143312 16 111 3.2 9.7 0.00 0.00 0.00 66 1021.3
20190417142825 16 168 4.8 9.7 0.00 0.00 0.00 65 1021.3
20190417142315 16 193 3.2 12.9 0.00 0.00 0.00 64 1021.3
20190417141828 16 201 3.2 12.9 0.00 0.00 0.00 64 1021.4
20190417141321 16 208 3.2 8.0 0.00 0.00 0.00 65 1021.3
20190417140826 16 154 3.2 9.7 0.00 0.00 0.00 65 1021.3
20190417140319 16 205 4.8 11.3 0.00 0.00 0.00 64 1021.3
20190417135824 16 193 8.0 11.3 0.00 0.00 0.00 64 1021.3
20190417135331 16 207 4.8 9.7 0.00 0.00 0.00 65 1021.3
20190417134824 16 199 1.6 12.9 0.00 0.00 0.00 64 1021.3
20190417134317 16 195 8.0 12.9 0.00 0.00 0.00 63 1021.2
20190417133826 16 159 4.8 11.3 0.00 0.00 0.00 64 1021.2
20190417133319 16 128 6.4 11.3 0.00 0.00 0.00 63 1021.2
20190417132831 16 207 1.6 9.7 0.00 0.00 0.00 65 1021.2
20190417132317 16 184 4.8 9.7 0.00 0.00 0.00 64 1021.2
20190417131830 16 156 4.8 8.0 0.00 0.00 0.00 64 1021.2
20190417131323 16 165 4.8 9.7 0.00 0.00 0.00 64 1021.3
20190417130828 16 162 4.8 9.7 0.00 0.00 0.00 64 1021.3
20190417130321 16 140 3.2 8.0 0.00 0.00 0.00 65 1021.3
20190417125826 16 120 4.8 8.0 0.00 0.00 0.00 65 1021.3
20190417124816 16 156 4.8 11.3 0.00 0.00 0.00 66 1021.3
20190417124329 16 229 4.8 11.3 0.00 0.00 0.00 65 1021.3
20190417123814 16 214 0.0 11.3 0.00 0.00 0.00 65 1021.3
20190417123327 16 142 3.2 12.9 0.00 0.00 0.00 65 1021.3
20190417122820 16 210 4.8 12.9 0.00 0.00 0.00 65 1021.2
20190417122324 16 176 1.6 11.3 0.00 0.00 0.00 65 1021.2